This is the latest recevied weather packets stored in our database for station/object KC1TLF-15. If no packets are shown the sender has not sent any weather packets the latest 10 day(s).
| Time | Temp. | Humidity | Pressure | Rain* | Wind** | Luminosity | Snow |
|---|---|---|---|---|---|---|---|
| 1777477271 | 10° C | 79% | 1024.3 hPa | 0 mm | 0.89 m/s, 281° | 214 W/m² | - |
| 1777476671 | 10.56° C | 78% | 1024.3 hPa | 0 mm | 0.45 m/s, 16° | 182 W/m² | - |
| 1777476070 | 10° C | 78% | 1024.5 hPa | 0 mm | 0 m/s | 214 W/m² | - |
| 1777475470 | 10.56° C | 76% | 1024.8 hPa | 0 mm | 0.89 m/s, 71° | 197 W/m² | - |
| 1777474869 | 10.56° C | 77% | 1025 hPa | 0 mm | 0.89 m/s, 32° | 171 W/m² | - |
| 1777474270 | 10.56° C | 77% | 1025.3 hPa | 0 mm | 0.89 m/s, 352° | 175 W/m² | - |
| 1777473670 | 10.56° C | 76% | 1025.2 hPa | 0 mm | 0.89 m/s, 344° | 355 W/m² | - |
| 1777473071 | 10° C | 76% | 1025.7 hPa | 0 mm | 1.79 m/s, 144° | 156 W/m² | - |
| 1777472471 | 10.56° C | 75% | 1025.8 hPa | 0 mm | 0 m/s | 192 W/m² | - |
| 1777471869 | 10.56° C | 73% | 1025.9 hPa | 0 mm | 2.24 m/s, 160° | 251 W/m² | - |
| 1777471271 | 10.56° C | 74% | 1025.8 hPa | 0 mm | 1.79 m/s, 209° | 217 W/m² | - |
| 1777470671 | 10° C | 76% | 1026 hPa | 0 mm | 0 m/s | 207 W/m² | - |
| 1777470070 | 10.56° C | 73% | 1025.8 hPa | 0 mm | 0.89 m/s, 22° | 228 W/m² | - |
| 1777469469 | 10° C | 74% | 1025.7 hPa | 0 mm | 0.89 m/s, 69° | 226 W/m² | - |
| 1777468869 | 9.44° C | 76% | 1025.9 hPa | 0 mm | 0.89 m/s, 152° | 165 W/m² | - |
| 1777468270 | 9.44° C | 76% | 1026.2 hPa | 0 mm | 0.89 m/s, 8° | 153 W/m² | - |
| 1777467671 | 9.44° C | 77% | 1026.3 hPa | 0 mm | 0.45 m/s, 332° | 187 W/m² | - |
| 1777467070 | 9.44° C | 76% | 1026.3 hPa | 0 mm | 0.89 m/s, 184° | 175 W/m² | - |
| 1777466469 | 9.44° C | 76% | 1026.3 hPa | 0 mm | 0.89 m/s, 61° | 315 W/m² | - |
| 1777465870 | 9.44° C | 77% | 1026.4 hPa | 0 mm | 0 m/s | 197 W/m² | - |
| 1777465271 | 9.44° C | 76% | 1026.5 hPa | 0 mm | 0.45 m/s, 335° | 163 W/m² | - |
| 1777464671 | 8.89° C | 77% | 1026.5 hPa | 0 mm | 0.89 m/s, 213° | 139 W/m² | - |
| 1777464070 | 8.89° C | 78% | 1026.6 hPa | 0 mm | 0 m/s | 110 W/m² | - |
| 1777463471 | 8.89° C | 78% | 1026.6 hPa | 0 mm | 0.45 m/s, 45° | 103 W/m² | - |
| 1777462870 | 8.33° C | 79% | 1026.3 hPa | 0 mm | 0 m/s | - | - |
* Rain latest hour (hover to see other rain measurements)
** Current wind speed in m/s (hover to see current wind gust speed)